Regional Weather Roundup
Issued by NWS Midland/Odessa, TX

Home | Current Version | Previous Version | Text Only | Print | Product List | Glossary On
Versions: 1 2 3 4 5 6 7 8 9 10 11 12 13 14 15 16 17 18 19 20 21 22 23 24 25 26 27 28 29 30 31 32 33 34 35 36 37 38 39 40 41 42 43 44 45 46 47 48 49 50
000
ASUS44 KMAF 021310
RWRMAF
MIDLAND AREA WEATHER ROUNDUP
NATIONAL WEATHER SERVICE MIDLAND TX
800 AM CDT TUE JUN 02 2015

...IN SOUTHWEST TEXAS AND SOUTHEAST NEW MEXICO...

CITY           SKY/WX    TMP DP  RH WIND       PRES   REMARKS
ALPINE         SUNNY     71  51  50 SW9       30.17R
ANDREWS        FAIR      62  62 100 SE3       30.05R
ARTESIA        SUNNY     64  63  94 SE5       30.04S
BIG SPRING     MOSUNNY   69  62  79 S12       30.05R
CARLSBAD       SUNNY     68  54  60 W5        30.02R
DRYDEN           N/A     70  65  84 NW7       30.02R
FORT STOCKTON  SUNNY     68  60  75 SE9       30.00R
GUAD PASS      NOT AVBL
HOBBS          MOSUNNY   59  59 100 CALM      30.07R
MARFA          SUNNY     61  54  77 N3        30.17R
MIDLAND AIRPK  SUNNY     69  62  80 S7        30.03S
MIDLAND INTL   SUNNY     68  62  81 S7        30.03R
ODESSA         SUNNY     68  61  78 S10       30.03R
PECOS          SUNNY     67  61  79 NE6       29.99R
PRESIDIO       FAIR      77  55  45 N12       30.03R
SEMINOLE       MOSUNNY   63  59  87 CALM      30.06R
SNYDER         LGT RAIN  66  62  86 S5        30.05R
WINK           MOSUNNY   69  62  78 SE7       30.00R
$$
...OTHER STATIONS IN TEXAS...

CITY           SKY/WX    TMP DP  RH WIND       PRES   REMARKS
ABILENE        SUNNY     69  64  84 SE10      30.03F
AMARILLO       SUNNY     66  57  72 S7        30.04S
AUSTIN         MOSUNNY   70  69  97 CALM      30.04R
BROWNSVILLE    SUNNY     77  73  87 CALM      30.00R
CORPUS CHRISTI MOSUNNY   75  72  90 CALM      30.01R
DALLAS FTW     PTSUNNY   70  65  84 CALM      30.04S
DEL RIO        SUNNY     71  67  87 SE8       30.00R
EL PASO        MOSUNNY   75  46  35 SE9       30.05R
HOUSTON INT    MOSUNNY   73  69  87 NE5       30.03R
LUBBOCK        MOSUNNY   68  61  78 S9        30.05R
SAN ANGELO     SUNNY     69  65  86 S8        30.04R
SAN ANTONIO    MOSUNNY   74  69  85 CALM      30.05R
WACO           MOSUNNY   68  65  90 NE3       30.05R
WICHITA FALLS  NOT AVBL
$$
...OTHER LOCATIONS IN NEW MEXICO...

CITY           SKY/WX    TMP DP  RH WIND       PRES   REMARKS
ALAMAGORDO     SUNNY     66  43  42 E6        30.09R
ALBUQUERQUE    MOSUNNY   61  40  45 CALM      30.17R
CANNON AFB     SUNNY     63  55  76 CALM      30.07S
CLOVIS         SUNNY     63  57  82 W5          N/A
HOLLOMAN AFB   SUNNY     63  41  43 CALM      30.06S
ROSWELL        SUNNY     65  58  78 S7        30.03R
RUIDOSO        SUNNY     59  39  47 CALM      30.25S
SANTA FE       SUNNY     54  42  64 CALM      30.21R
TRUTH OR CONSE SUNNY     63  36  36 NW7       30.11R
TUCUMCARI      SUNNY     64  56  75 W5        30.03R
$$


USA.gov is the U.S. government's official web portal to all federal, state and local government web resources and services.